User: anonymous   Login
Location: Unspecified
(0.0000°N, 0.0000°E)
Time: 23:15:39
(UTC+00:00)
Language:

STARLINK-5377 - Orbit

View from above orbital plane
View from above orbital plane
View from above satellite
View from above satellite

Ground track
Ground track

The orbit is defined by the following mean orbital elements,

1 56141U          26145.21261098 +.00000000 +00000-0 +12675-4 0 00002
2 56141  43.0047  74.7925 0001086 255.5257 104.5474 15.27577702    05
Epoch (UTC): 25 May 2026 05:06:09
Eccentricity: 0.0001086
inclination: 43.0047°
perigee height: 482 km
apogee height: 484 km
right ascension of ascending node: 74.7925°
argument of perigee: 255.5257°
revolutions per day: 15.27577702
mean anomaly at epoch: 104.5474°

The dashed part of the orbit path shows where the satellite is in the earth's shadow,  

DLR